Location: ??????
(42.0089°N, 44.3281°E)
Time: 18:55:47
(UTC+00:00)

Okean 1-7 Rocket - Pass Details

Date: 01 June 2022
Orbit: 616 x 648 km, 82.5° (Epoch: 30 June)

Event Time Altitude Azimuth Distance (km) Brightness Sun altitude
Exits shadow 00:06:03 13° 185° (S) 1,816 5.5 -13.0°
Maximum altitude 00:10:01 86° 100° (E) 626 3.6 -12.4°
Drops below altitude 10° 00:14:26 10° 9° (N) 1,989 7.0 -11.9°
Sets 00:16:40 0° 9° (N) 2,898 7.9 -11.6°
